N6OIM Weather Reports


time (UTC)temp
C
wind
direction
speed
KPH
gust
KPH
rain 1hr
cm
rain 24hr
cm
rain mn
cm
humidity
%
barometer
mb
20210723164910 26 169 0.0 3.2 0.00 0.00 0.00 39 1013.6
20210723164350 26 169 1.6 3.2 0.00 0.00 0.00 38 1013.7
20210723163836 26 169 1.6 4.8 0.00 0.00 0.00 39 1013.7
20210723163332 26 169 1.6 4.8 0.00 0.00 0.00 40 1013.7
20210723162931 25 169 0.0 4.8 0.00 0.00 0.00 42 1013.7
20210723162407 25 141 1.6 4.8 0.00 0.00 0.00 41 1013.7
20210723161856 25 115 0.0 3.2 0.00 0.00 0.00 42 1013.9
20210723161348 25 115 1.6 3.2 0.00 0.00 0.00 43 1013.9
20210723160924 24 115 0.0 3.2 0.00 0.00 0.00 44 1013.8
20210723160347 24 115 0.0 3.2 0.00 0.00 0.00 44 1013.8
20210723155822 23 115 0.0 3.2 0.00 0.00 0.00 45 1013.8
20210723155420 23 114 1.6 3.2 0.00 0.00 0.00 45 1013.8
20210723154909 23 114 1.6 3.2 0.00 0.00 0.00 47 1013.8
20210723154414 23 115 0.0 0.0 0.00 0.00 0.00 48 1013.8
20210723153353 22 115 1.6 3.2 0.00 0.00 0.00 49 1013.6
20210723152832 22 115 0.0 3.2 0.00 0.00 0.00 50 1013.6
20210723152327 21 115 0.0 0.0 0.00 0.00 0.00 53 1013.6
20210723151415 21 115 1.6 3.2 0.00 0.00 0.00 54 1013.5
20210723150840 20 115 0.0 4.8 0.00 0.00 0.00 54 1013.5
20210723150321 20 116 3.2 4.8 0.00 0.00 0.00 56 1013.6
20210723145355 18 118 0.0 0.0 0.00 0.00 0.00 61 1013.6
20210723144839 18 118 0.0 0.0 0.00 0.00 0.00 62 1013.6
20210723144419 18 118 0.0 0.0 0.00 0.00 0.00 63 1013.5
20210723143835 17 118 0.0 0.0 0.00 0.00 0.00 64 1013.6
20210723143334 17 118 0.0 0.0 0.00 0.00 0.00 65 1013.6
20210723142823 17 118 0.0 0.0 0.00 0.00 0.00 66 1013.5
20210723140904 16 118 0.0 3.2 0.00 0.00 0.00 67 1013.3
20210723135416 15 117 3.2 4.8 0.00 0.00 0.00 71 1013.3
20210723133905 15 128 0.0 0.0 0.00 0.00 0.00 72 1013.0
20210723133340 15 128 0.0 0.0 0.00 0.00 0.00 72 1012.8
20210723132404 15 132 0.0 0.0 0.00 0.00 0.00 71 1012.7
20210723131849 15 121 0.0 0.0 0.00 0.00 0.00 71 1012.6
20210723131321 15 121 0.0 0.0 0.00 0.00 0.00 70 1012.5
20210723130819 15 121 0.0 0.0 0.00 0.00 0.00 70 1012.5
20210723130418 15 121 0.0 0.0 0.00 0.00 0.00 69 1012.4
20210723123429 16 121 0.0 0.0 0.00 0.00 0.00 66 1012.2
20210723122842 16 121 0.0 0.0 0.00 0.00 0.00 66 1012.0
20210723122327 16 121 0.0 0.0 0.00 0.00 0.00 66 1012.0
20210723121915 16 121 0.0 0.0 0.00 0.00 0.00 65 1012.0
20210723121414 16 121 0.0 0.0 0.00 0.00 0.00 65 1012.1
20210723113922 16 121 0.0 0.0 0.00 0.00 0.00 63 1011.9
20210723113342 16 121 0.0 0.0 0.00 0.00 0.00 63 1012.0
20210723112935 16 121 0.0 0.0 0.00 0.00 0.00 63 1012.0
20210723111908 16 121 0.0 1.6 0.00 0.00 0.00 64 1012.0
20210723105913 16 121 0.0 0.0 0.00 0.00 0.00 65 1012.0
20210723104901 16 121 0.0 0.0 0.00 0.00 0.00 62 1012.1
20210723104400 16 121 0.0 0.0 0.00 0.00 0.00 62 1012.0
20210723103903 17 121 0.0 0.0 0.00 0.00 0.00 61 1012.0
20210723103345 17 121 0.0 0.0 0.00 0.00 0.00 61 1012.0
20210723102822 17 121 0.0 0.0 0.00 0.00 0.00 60 1012.1
20210723100411 17 121 0.0 0.0 0.00 0.00 0.00 57 1012.1
20210723095846 17 121 0.0 0.0 0.00 0.00 0.00 58 1012.2
20210723095340 18 121 0.0 0.0 0.00 0.00 0.00 57 1012.1
20210723094916 18 121 0.0 0.0 0.00 0.00 0.00 57 1012.2
20210723093405 18 121 0.0 0.0 0.00 0.00 0.00 56 1012.1
20210723092845 18 121 0.0 0.0 0.00 0.00 0.00 56 1012.2
20210723090410 19 121 0.0 0.0 0.00 0.00 0.00 54 1012.2
20210723085816 19 121 0.0 0.0 0.00 0.00 0.00 53 1012.3
20210723085319 20 121 0.0 0.0 0.00 0.00 0.00 52 1012.2
20210723084851 20 121 0.0 0.0 0.00 0.00 0.00 51 1012.2
20210723084330 20 121 0.0 0.0 0.00 0.00 0.00 51 1012.0
20210723083825 20 121 0.0 0.0 0.00 0.00 0.00 51 1012.0
20210723083324 20 121 0.0 0.0 0.00 0.00 0.00 51 1012.0
20210723082824 20 121 0.0 0.0 0.00 0.00 0.00 50 1012.1
20210723082343 20 121 0.0 0.0 0.00 0.00 0.00 50 1012.0
20210723081835 20 121 0.0 3.2 0.00 0.00 0.00 49 1012.0
20210723081332 21 121 0.0 3.2 0.00 0.00 0.00 49 1012.1
20210723080827 21 121 1.6 3.2 0.00 0.00 0.00 49 1012.1
20210723080319 21 121 1.6 4.8 0.00 0.00 0.00 48 1012.1
20210723075835 21 121 1.6 6.4 0.00 0.00 0.00 48 1012.2
20210723075335 21 87 3.2 6.4 0.00 0.00 0.00 48 1012.1
20210723074849 21 114 1.6 4.8 0.00 0.00 0.00 49 1012.1
20210723074327 21 173 1.6 9.7 0.00 0.00 0.00 48 1012.1
20210723073824 21 170 1.6 9.7 0.00 0.00 0.00 48 1012.1
20210723073322 21 149 3.2 6.4 0.00 0.00 0.00 47 1012.2
20210723072816 21 149 1.6 6.4 0.00 0.00 0.00 47 1012.1
20210723072318 21 123 3.2 11.3 0.00 0.00 0.00 47 1012.2
20210723071818 21 117 1.6 11.3 0.00 0.00 0.00 47 1012.2
20210723071347 22 126 3.2 8.0 0.00 0.00 0.00 46 1012.3
20210723070826 22 155 1.6 6.4 0.00 0.00 0.00 47 1012.2
20210723070322 22 163 1.6 6.4 0.00 0.00 0.00 46 1012.1
20210723065818 22 137 0.0 3.2 0.00 0.00 0.00 47 1012.0
20210723065427 22 137 1.6 6.4 0.00 0.00 0.00 46 1012.1
20210723064404 22 136 1.6 4.8 0.00 0.00 0.00 46 1012.2
20210723063841 22 135 0.0 6.4 0.00 0.00 0.00 45 1012.2
20210723063335 22 114 4.8 6.4 0.00 0.00 0.00 45 1012.3
20210723062825 22 118 3.2 6.4 0.00 0.00 0.00 45 1012.3
20210723062418 23 128 3.2 4.8 0.00 0.00 0.00 45 1012.3
20210723061837 23 130 1.6 4.8 0.00 0.00 0.00 45 1012.3
20210723061337 23 138 3.2 4.8 0.00 0.00 0.00 44 1012.4
20210723055910 23 138 1.6 3.2 0.00 0.00 0.00 43 1012.3
20210723055318 24 152 0.0 4.8 0.00 0.00 0.00 43 1012.3
20210723054418 24 150 3.2 6.4 0.00 0.00 0.00 42 1012.3
20210723053852 24 192 3.2 3.2 0.00 0.00 0.00 41 1012.3
20210723052319 25 192 3.2 6.4 0.00 0.00 0.00 40 1011.9
20210723051932 25 146 1.6 8.0 0.00 0.00 0.00 40 1011.8
20210723051349 25 176 4.8 8.0 0.00 0.00 0.00 40 1011.8
20210723050853 25 144 1.6 3.2 0.00 0.00 0.00 40 1011.7
20210723050334 26 144 1.6 3.2 0.00 0.00 0.00 39 1011.7
20210723045826 26 137 0.0 3.2 0.00 0.00 0.00 38 1011.5
20210723045427 26 155 0.0 3.2 0.00 0.00 0.00 38 1011.5
20210723044408 26 159 1.6 4.8 0.00 0.00 0.00 38 1011.3
20210723043904 27 117 1.6 4.8 0.00 0.00 0.00 37 1011.3
20210723043348 27 180 1.6 3.2 0.00 0.00 0.00 36 1011.4
20210723042903 27 180 1.6 8.0 0.00 0.00 0.00 35 1011.4
20210723041902 27 160 1.6 6.4 0.00 0.00 0.00 35 1011.1
20210723041339 28 177 0.0 6.4 0.00 0.00 0.00 33 1011.0
20210723040913 28 238 1.6 6.4 0.00 0.00 0.00 33 1011.0
20210723035402 28 236 1.6 6.4 0.00 0.00 0.00 33 1011.0
20210723034934 29 203 1.6 17.7 0.00 0.00 0.00 33 1010.9
20210723034402 30 157 4.8 17.7 0.00 0.00 0.00 32 1010.7
20210723033841 30 222 1.6 4.8 0.00 0.00 0.00 32 1010.6
20210723033431 30 208 1.6 4.8 0.00 0.00 0.00 31 1010.6
20210723032844 31 163 0.0 4.8 0.00 0.00 0.00 30 1010.5
20210723032346 31 140 0.0 4.8 0.00 0.00 0.00 29 1010.4
20210723030911 32 254 0.0 0.0 0.00 0.00 0.00 27 1010.3
20210723030404 32 240 0.0 3.2 0.00 0.00 0.00 27 1010.2
20210723025840 32 242 1.6 6.4 0.00 0.00 0.00 26 1010.2
20210723025434 32 242 0.0 6.4 0.00 0.00 0.00 26 1010.2
20210723024857 33 207 3.2 9.7 0.00 0.00 0.00 25 1010.2
20210723024344 33 238 4.8 9.7 0.00 0.00 0.00 25 1010.2
20210723023820 34 235 1.6 8.0 0.00 0.00 0.00 24 1010.1
20210723021903 35 199 3.2 8.0 0.00 0.00 0.00 18 1010.1
20210723021343 35 196 4.8 8.0 0.00 0.00 0.00 18 1010.1
20210723020824 35 210 4.8 8.0 0.00 0.00 0.00 18 1010.0
20210723020413 36 188 1.6 6.4 0.00 0.00 0.00 18 1010.0
20210723015843 36 183 3.2 6.4 0.00 0.00 0.00 18 1009.9
20210723015327 36 253 1.6 4.8 0.00 0.00 0.00 18 1009.8
20210723014819 36 164 3.2 6.4 0.00 0.00 0.00 18 1009.8
20210723012406 37 198 4.8 8.0 0.00 0.00 0.00 18 1009.6
20210723011409 37 210 3.2 6.4 0.00 0.00 0.00 18 1009.6
20210723010915 37 145 0.0 4.8 0.00 0.00 0.00 18 1009.6
20210723010347 37 156 3.2 6.4 0.00 0.00 0.00 15 1009.7
20210723005410 37 247 6.4 9.7 0.00 0.00 0.00 15 1009.8
20210723004411 37 191 4.8 8.0 0.00 0.00 0.00 16 1009.8
20210723002911 37 133 4.8 11.3 0.00 0.00 0.00 20 1009.8
20210723002353 37 126 6.4 8.0 0.00 0.00 0.00 20 1009.8
20210723001836 37 254 1.6 8.0 0.00 0.00 0.00 19 1009.9
20210723001324 37 223 4.8 8.0 0.00 0.00 0.00 19 1009.9
20210723000821 37 219 6.4 8.0 0.00 0.00 0.00 18 1009.8
20210723000417 37 146 0.0 6.4 0.00 0.00 0.00 19 1009.8
20210722234824 37 221 3.2 4.8 0.00 0.00 0.00 19 1010.0
20210722234428 37 246 1.6 6.4 0.00 0.00 0.00 18 1010.0
20210722233855 37 227 3.2 6.4 0.00 0.00 0.00 18 1010.1
20210722233334 37 187 1.6 6.4 0.00 0.00 0.00 18 1010.1
20210722232938 37 148 3.2 9.7 0.00 0.00 0.00 17 1010.1
20210722231911 37 199 3.2 11.3 0.00 0.00 0.00 18 1010.1
20210722231402 37 284 4.8 9.7 0.00 0.00 0.00 18 1010.1
20210722230420 37 294 4.8 8.0 0.00 0.00 0.00 18 1010.2
20210722225358 37 298 4.8 8.0 0.00 0.00 0.00 18 1010.3
20210722224851 37 234 3.2 8.0 0.00 0.00 0.00 19 1010.3
20210722224343 37 257 3.2 6.4 0.00 0.00 0.00 19 1010.4
20210722223819 37 244 1.6 8.0 0.00 0.00 0.00 19 1010.4
20210722223418 37 281 3.2 11.3 0.00 0.00 0.00 20 1010.5
20210722222830 36 192 9.7 11.3 0.00 0.00 0.00 22 1010.5
20210722222317 36 293 4.8 8.0 0.00 0.00 0.00 20 1010.5
20210722221907 36 221 4.8 8.0 0.00 0.00 0.00 21 1010.6
20210722221341 36 254 4.8 8.0 0.00 0.00 0.00 20 1010.6
20210722220846 36 329 3.2 8.0 0.00 0.00 0.00 20 1010.6
20210722220431 36 236 3.2 8.0 0.00 0.00 0.00 21 1010.6
20210722215357 35 273 4.8 8.0 0.00 0.00 0.00 22 1010.8
20210722214851 35 265 3.2 6.4 0.00 0.00 0.00 23 1010.9
20210722214342 35 275 4.8 8.0 0.00 0.00 0.00 24 1010.8
20210722213908 35 275 6.4 8.0 0.00 0.00 0.00 24 1010.8
20210722213422 35 152 1.6 6.4 0.00 0.00 0.00 26 1010.9
20210722212910 35 268 4.8 8.0 0.00 0.00 0.00 25 1011.1
20210722212436 35 246 4.8 8.0 0.00 0.00 0.00 25 1011.0
20210722211855 35 126 1.6 9.7 0.00 0.00 0.00 25 1011.0
20210722211406 35 191 3.2 9.7 0.00 0.00 0.00 25 1011.2
20210722210844 35 149 4.8 8.0 0.00 0.00 0.00 24 1011.1
20210722210337 35 155 1.6 4.8 0.00 0.00 0.00 23 1011.3
20210722205924 35 188 0.0 9.7 0.00 0.00 0.00 23 1011.3
20210722205403 35 144 4.8 9.7 0.00 0.00 0.00 23 1011.2
20210722203906 34 173 4.8 8.0 0.00 0.00 0.00 25 1011.4
20210722203359 33 86 6.4 8.0 0.00 0.00 0.00 26 1011.4
20210722202829 33 190 3.2 8.0 0.00 0.00 0.00 26 1011.4
20210722202430 33 182 3.2 6.4 0.00 0.00 0.00 27 1011.4
20210722195912 32 271 4.8 8.0 0.00 0.00 0.00 29 1011.4
20210722195404 32 191 3.2 8.0 0.00 0.00 0.00 30 1011.5
20210722194904 32 238 3.2 4.8 0.00 0.00 0.00 30 1011.4
20210722193931 31 211 3.2 8.0 0.00 0.00 0.00 33 1011.6
20210722193348 31 215 6.4 8.0 0.00 0.00 0.00 32 1011.6
20210722191913 31 271 3.2 4.8 0.00 0.00 0.00 34 1011.7
20210722191410 31 278 1.6 6.4 0.00 0.00 0.00 34 1011.7
20210722190852 31 209 4.8 6.4 0.00 0.00 0.00 34 1011.6
20210722190336 30 173 3.2 6.4 0.00 0.00 0.00 33 1011.6
20210722185828 30 187 3.2 8.0 0.00 0.00 0.00 34 1011.6
20210722185436 30 172 1.6 9.7 0.00 0.00 0.00 35 1011.6
20210722181903 28 294 4.8 6.4 0.00 0.00 0.00 36 1011.8
20210722181409 28 226 3.2 6.4 0.00 0.00 0.00 36 1011.8
20210722180854 28 214 3.2 4.8 0.00 0.00 0.00 37 1011.8
20210722180431 28 172 3.2 4.8 0.00 0.00 0.00 37 1011.8
20210722175406 27 192 1.6 6.4 0.00 0.00 0.00 39 1011.7
20210722174842 27 214 0.0 6.4 0.00 0.00 0.00 39 1011.7
20210722174319 26 175 1.6 8.0 0.00 0.00 0.00 40 1011.8
20210722173918 26 191 3.2 8.0 0.00 0.00 0.00 40 1011.8
20210722173345 26 154 4.8 8.0 0.00 0.00 0.00 40 1011.7
20210722172837 26 117 3.2 4.8 0.00 0.00 0.00 41 1011.6